Dewittville, NY

9:13 PM EST on December 15, 2019 (GMT -0500)
Maple Springs | | Change Station

Elev 1312 ft 42.20 °N, 79.42 °W | Updated 13 minutes ago

Overcast
Overcast
27.2 °F
Feels Like 27 °F
N
0
Wind Variable Wind from NNW
Gusts 1.0 mph

Today
High -- | Low -- °F
--% Chance of Precip.
Yesterday
High -- | Low -- °F
Precip. -- in
Pressure 30.19 in
Visibility 9.0 miles
Clouds Scattered Clouds 1600 ft
Overcast 3600 ft
Windchill 27 °F
Dew Point 24 °F
Humidity 86%
Rainfall 0.03 in
Snow Depth Not available.
7:39 AM 4:46 PM
Waning Gibbous, 83% visible
METAR KJHW 160156Z AUTO 33003KT 9SM -SN SCT016 OVC036 M04/M06 A3010 RMK AO2 SLP221 P0000 T10441056 FZRANO
Pressure 30.19 in
Visibility 9.0 miles
Clouds Scattered Clouds 1600 ft
Overcast 3600 ft
Windchill 27 °F
Dew Point 24 °F
Humidity 86%
Rainfall 0.03 in
Snow Depth Not available.
7:39 AM 4:46 PM
Waning Gibbous, 83% visible
METAR KJHW 160156Z AUTO 33003KT 9SM -SN SCT016 OVC036 M04/M06 A3010 RMK AO2 SLP221 P0000 T10441056 FZRANO

Get Severe Weather Alerts

Thanks for signing up!

Be on the lookout for a verification email in your inbox.

You'll start receiving the daily forecast at 6 AM.

×

10-Day Weather Forecast

Almanac

Astronomy

Dec. 15, 2019 Rise Set
Actual Time
Civil Twilight
Nautical Twilight
Astronomical Twilight
Moon
Length of Visible Light
Length of Day
Tomorrow will be .
, % of the Moon is Illuminated

Today's Extremes

State Highs State Lows

Community

WunderPhotos

Category 6

Welcome to Category 6. This is the collective home for Weather Underground's featured writeups by Dr. Jeff Masters (right), Bob Henson (left), Chris Burt, and other regular contributors.

Nearby

Air Quality

  Air Quality AQ Index Pollutant
Not available.

Snow Depth

Station Depth Elevation

Earthquake Activity

City Distance Mag. Time & Date
Minimum magnitude displayed is 2.5.

Coastal Water Temperatures

Place Temperature

Stations

Nearby Weather Stations

Station Location Temp. Windchill Dew Point Humidity Wind Precip. Elev Updated Type
                   

Watches & Warnings

There are currently no watches in effect.